When you browse on this site, cookies collect data to enhance your experience and personalize the content and advertising you see.
Visit our Privacy Policy to learn more. By continuing to use the site, you agree to this use of cookies and data.
  • In United Kingdom
  • List of Countries
  • For 7 days
  • Water Temperature
  • Satellite Maps
  • Weather Map
  • Weather Widgets
  • user-avatar
    Login

    Hourly Weather Lewis

    Today, 18 July, Thursday

    Time Temperature Precipitation Wind Pressure Humidity
    00:00 +10°C° 0.1 mm 5 mps 741 mmHg 96%
    01:00 +10°C° 0 mm 5 mps 741 mmHg 96%
    02:00 +10°C° 0 mm 5 mps 741 mmHg 96%
    03:00 +10°C° 0 mm 5 mps 741 mmHg 95%
    04:00 +10°C° 0.1 mm 5 mps 740 mmHg 93%
    05:00 +12°C° 0.1 mm 5 mps 740 mmHg 92%
    06:00 +13°C° 0.1 mm 4 mps 740 mmHg 90%
    07:00 +13°C° 0.1 mm 5 mps 740 mmHg 85%
    08:00 +14°C° 0.1 mm 6 mps 740 mmHg 80%
    09:00 +15°C° 0.1 mm 6 mps 740 mmHg 76%
    10:00 +15°C° 0.3 mm 6 mps 740 mmHg 76%
    11:00 +15°C° 0.3 mm 7 mps 740 mmHg 77%
    12:00 +15°C° 0.3 mm 7 mps 740 mmHg 77%
    13:00 +15°C° 0.2 mm 7 mps 740 mmHg 77%
    14:00 +15°C° 0.2 mm 7 mps 740 mmHg 76%
    15:00 +15°C° 0.2 mm 6 mps 741 mmHg 75%
    16:00 +14°C° 0 mm 7 mps 741 mmHg 77%
    17:00 +14°C° 0 mm 7 mps 741 mmHg 78%
    18:00 +14°C° 0 mm 7 mps 741 mmHg 80%
    19:00 +12°C° 0 mm 7 mps 741 mmHg 81%
    20:00 +12°C° 0 mm 7 mps 741 mmHg 83%
    21:00 +11°C° 0 mm 7 mps 742 mmHg 84%
    22:00 +11°C° 0.2 mm 7 mps 742 mmHg 86%
    23:00 +11°C° 0.2 mm 8 mps 742 mmHg 88%

    Tomorrow, 19 July, Friday

    Time Temperature Precipitation Wind Pressure Humidity
    00:00 +11°C° 0.2 mm 8 mps 742 mmHg 90%
    01:00 +11°C° 0.4 mm 8 mps 742 mmHg 91%
    02:00 +11°C° 0.4 mm 7 mps 742 mmHg 92%
    03:00 +11°C° 0.4 mm 7 mps 742 mmHg 94%
    04:00 +11°C° 0.2 mm 6 mps 742 mmHg 93%
    05:00 +11°C° 0.2 mm 6 mps 742 mmHg 93%
    06:00 +11°C° 0.2 mm 6 mps 742 mmHg 93%
    07:00 +13°C° 0.3 mm 6 mps 743 mmHg 90%
    08:00 +13°C° 0.3 mm 5 mps 743 mmHg 87%
    09:00 +14°C° 0.3 mm 5 mps 743 mmHg 84%
    10:00 +14°C° 0.2 mm 5 mps 743 mmHg 80%
    11:00 +15°C° 0.2 mm 4 mps 743 mmHg 76%
    12:00 +17°C° 0.2 mm 4 mps 743 mmHg 72%
    13:00 +17°C° 0.2 mm 3 mps 743 mmHg 71%
    14:00 +17°C° 0.2 mm 3 mps 743 mmHg 69%
    15:00 +17°C° 0.2 mm 2 mps 743 mmHg 67%
    16:00 +17°C° 0.2 mm 2 mps 743 mmHg 72%
    17:00 +16°C° 0.2 mm 2 mps 742 mmHg 76%
    18:00 +15°C° 0.2 mm 2 mps 742 mmHg 80%
    19:00 +15°C° 0 mm 2 mps 742 mmHg 84%
    20:00 +14°C° 0 mm 1 mps 742 mmHg 87%
    21:00 +13°C° 0 mm 1 mps 742 mmHg 91%
    22:00 +13°C° 0 mm 1 mps 742 mmHg 91%
    23:00 +13°C° 0 mm 1 mps 742 mmHg 91%

    Day after tomorrow, 20 July, Saturday

    Time Temperature Precipitation Wind Pressure Humidity
    00:00 +13°C° 0 mm 1 mps 741 mmHg 91%
    01:00 +12°C° 0 mm 1 mps 741 mmHg 91%
    02:00 +12°C° 0 mm 2 mps 741 mmHg 92%
    03:00 +12°C° 0 mm 2 mps 741 mmHg 92%
    04:00 +12°C° 0 mm 2 mps 741 mmHg 92%
    05:00 +13°C° 0 mm 2 mps 741 mmHg 92%
    06:00 +12°C° 0 mm 3 mps 741 mmHg 92%
    07:00 +13°C° 0 mm 3 mps 742 mmHg 87%
    08:00 +15°C° 0 mm 2 mps 742 mmHg 83%
    09:00 +16°C° 0 mm 2 mps 743 mmHg 78%
    10:00 +16°C° 0.1 mm 3 mps 743 mmHg 74%
    11:00 +16°C° 0.1 mm 3 mps 743 mmHg 71%
    12:00 +17°C° 0.1 mm 3 mps 744 mmHg 67%
    13:00 +17°C° 0 mm 4 mps 744 mmHg 66%
    14:00 +17°C° 0 mm 4 mps 745 mmHg 65%
    15:00 +17°C° 0 mm 4 mps 745 mmHg 64%
    16:00 +15°C° 0 mm 4 mps 745 mmHg 67%
    17:00 +15°C° 0 mm 4 mps 746 mmHg 69%
    18:00 +15°C° 0 mm 5 mps 746 mmHg 71%
    19:00 +14°C° 0 mm 4 mps 746 mmHg 75%
    20:00 +13°C° 0 mm 4 mps 747 mmHg 80%
    21:00 +12°C° 0 mm 3 mps 747 mmHg 84%
    22:00 +11°C° 0 mm 4 mps 747 mmHg 87%
    23:00 +11°C° 0 mm 4 mps 747 mmHg 90%

    21 July, Sunday

    Time Temperature Precipitation Wind Pressure Humidity
    00:00 +10°C° 0 mm 4 mps 748 mmHg 94%
    01:00 +10°C° 0 mm 4 mps 748 mmHg 94%
    02:00 +10°C° 0 mm 4 mps 748 mmHg 94%
    03:00 +10°C° 0 mm 4 mps 748 mmHg 94%
    04:00 +11°C° 0 mm 4 mps 748 mmHg 91%
    05:00 +12°C° 0 mm 5 mps 748 mmHg 89%
    06:00 +12°C° 0 mm 5 mps 748 mmHg 87%
    07:00 +13°C° 0 mm 5 mps 749 mmHg 83%
    08:00 +14°C° 0 mm 6 mps 749 mmHg 80%
    09:00 +15°C° 0 mm 7 mps 749 mmHg 77%
    10:00 +15°C° 0.1 mm 8 mps 749 mmHg 76%
    11:00 +15°C° 0.1 mm 8 mps 749 mmHg 75%
    12:00 +15°C° 0.1 mm 9 mps 748 mmHg 75%
    13:00 +13°C° 0.9 mm 9 mps 748 mmHg 80%
    14:00 +13°C° 0.9 mm 8 mps 748 mmHg 85%
    15:00 +12°C° 0.9 mm 8 mps 748 mmHg 91%
    16:00 +12°C° 0.7 mm 8 mps 747 mmHg 91%
    17:00 +12°C° 0.7 mm 8 mps 747 mmHg 91%
    18:00 +13°C° 0.7 mm 8 mps 747 mmHg 92%
    19:00 +13°C° 1.4 mm 9 mps 746 mmHg 92%
    20:00 +13°C° 1.4 mm 9 mps 745 mmHg 93%
    21:00 +13°C° 1.4 mm 10 mps 745 mmHg 94%
    22:00 +13°C° 0.2 mm 10 mps 744 mmHg 92%
    23:00 +13°C° 0.2 mm 11 mps 743 mmHg 90%

    22 July, Monday

    Time Temperature Precipitation Wind Pressure Humidity
    00:00 +14°C° 0.2 mm 11 mps 743 mmHg 89%
    01:00 +14°C° 0.1 mm 12 mps 742 mmHg 89%
    02:00 +14°C° 0.1 mm 13 mps 742 mmHg 89%
    03:00 +14°C° 0.1 mm 14 mps 741 mmHg 90%
    04:00 +14°C° 0.2 mm 12 mps 742 mmHg 89%
    05:00 +13°C° 0.2 mm 11 mps 742 mmHg 89%
    06:00 +13°C° 0.2 mm 9 mps 743 mmHg 88%
    07:00 +13°C° 0 mm 9 mps 744 mmHg 86%
    08:00 +15°C° 0 mm 9 mps 745 mmHg 83%
    09:00 +15°C° 0 mm 9 mps 746 mmHg 80%
    10:00 +16°C° 0 mm 9 mps 746 mmHg 77%
    11:00 +16°C° 0 mm 9 mps 747 mmHg 73%
    12:00 +17°C° 0 mm 9 mps 748 mmHg 70%
    13:00 +17°C° 0 mm 9 mps 748 mmHg 70%
    14:00 +17°C° 0 mm 8 mps 748 mmHg 70%
    15:00 +17°C° 0 mm 8 mps 749 mmHg 71%
    16:00 +17°C° 0 mm 8 mps 749 mmHg 73%
    17:00 +16°C° 0 mm 7 mps 749 mmHg 75%
    18:00 +16°C° 0 mm 6 mps 749 mmHg 77%
    19:00 +15°C° 0 mm 6 mps 749 mmHg 81%
    20:00 +14°C° 0 mm 5 mps 750 mmHg 86%
    21:00 +13°C° 0 mm 4 mps 750 mmHg 91%
    22:00 +13°C° 0 mm 4 mps 750 mmHg 89%
    23:00 +13°C° 0 mm 4 mps 750 mmHg 88%

    23 July, Tuesday

    Time Temperature Precipitation Wind Pressure Humidity
    00:00 +13°C° 0 mm 3 mps 750 mmHg 86%
    01:00 +13°C° 0 mm 3 mps 749 mmHg 86%
    02:00 +13°C° 0 mm 3 mps 748 mmHg 85%
    03:00 +13°C° 0 mm 3 mps 748 mmHg 84%
    04:00 +14°C° 2.4 mm 2 mps 747 mmHg 89%
    05:00 +14°C° 2.4 mm 2 mps 747 mmHg 93%
    06:00 +14°C° 2.4 mm 2 mps 746 mmHg 98%
    07:00 +14°C° 2.8 mm 2 mps 746 mmHg 98%
    08:00 +14°C° 2.8 mm 1 mps 746 mmHg 98%
    09:00 +14°C° 2.8 mm 1 mps 746 mmHg 98%
    10:00 +15°C° 0.9 mm 1 mps 746 mmHg 98%
    11:00 +15°C° 0.9 mm 2 mps 747 mmHg 97%
    12:00 +15°C° 0.9 mm 2 mps 747 mmHg 97%
    13:00 +16°C° 0.2 mm 2 mps 747 mmHg 96%
    14:00 +16°C° 0.2 mm 3 mps 748 mmHg 95%
    15:00 +17°C° 0.2 mm 3 mps 748 mmHg 94%
    16:00 +17°C° 0 mm 3 mps 748 mmHg 93%
    17:00 +17°C° 0 mm 3 mps 749 mmHg 92%
    18:00 +18°C° 0 mm 2 mps 749 mmHg 90%
    19:00 +17°C° 0.1 mm 2 mps 749 mmHg 92%
    20:00 +16°C° 0.1 mm 1 mps 749 mmHg 94%
    21:00 +16°C° 0.1 mm 1 mps 749 mmHg 96%
    22:00 +16°C° 0.9 mm 1 mps 749 mmHg 97%
    23:00 +16°C° 0.9 mm 2 mps 749 mmHg 98%
    Show more